Weather History for KAST - November, 2013

Change the Weather History Date:

Sunday, November 24, 2013

  Actual Average Record
Temperature  
Mean Temperature 45 °F 45 °F  
Max Temperature 57 °F 52 °F 63 °F (1936)
Min Temperature 32 °F 39 °F 19 °F (1985)
Degree Days  
Heating Degree Days 20 20  
Month to date heating degree days 413 422  
Since 1 July heating degree days 1230 1289  
Cooling Degree Days 0 0  
Month to date cooling degree days 0 0  
Year to date cooling degree days 9 12  
Moisture  
Dew Point 32 °F    
Average Humidity 66    
Maximum Humidity 89    
Minimum Humidity 43    
Precipitation  
Precipitation 0.00 in 0.40 in 5.00 in (1927)
Month to date precipitation 4.77 8.76  
Year to date precipitation 53.87 54.98  
Sea Level Pressure  
Sea Level Pressure 30.15 in    
Wind  
Wind Speed 4 mph (East)    
Max Wind Speed 15 mph    
Max Gust Speed 18 mph    
Visibility 10 miles    
Events      
T = Trace of Precipitation, MM = Missing Value Source: NWS Daily Summary

Daily Weather History Graph

Daily Weather History Graph

Search for Another Location

Airport or City:

Trip Planner

Search our weather history database for the weather conditions in past years. The results will help you decide how hot, cold, wet, or windy it might be!

Date:

Astronomy

Nov. 24, 2013 Rise Set
Actual Time 7:29 AM PST 4:35 PM PST
Civil Twilight 6:55 AM PST 5:08 PM PST
Nautical Twilight 6:18 AM PST 5:45 PM PST
Astronomical Twilight 5:42 AM PST 6:21 PM PST
Moon 11:17 PM PST (11/24) 12:09 PM PST (11/24)
Length of Visible Light 10h 12m
Length of Day
9h 05m
Waning Gibbous, 59% of the Moon is Illuminated
Nov 24
Waning Gibbous
Nov 25
Last Quarter
Dec 2
New
Dec 9
First Quarter
Dec 17
Full

Hourly Weather History & Observations

Time (PST) Temp. Windchill Dew Point Humidity Pressure Visibility Wind Dir Wind Speed Gust Speed Precip Events Conditions
12:55 AM 43.0 °F 36.4 °F 30.9 °F 62% 30.12 in 10.0 mi ENE 12.7 mph - N/A   Clear
1:55 AM 41.0 °F 37.1 °F 28.0 °F 60% 30.11 in 10.0 mi East 5.8 mph - N/A   Clear
2:55 AM 39.0 °F 34.8 °F 28.0 °F 65% 30.11 in 10.0 mi ENE 5.8 mph - N/A   Clear
3:55 AM 35.1 °F - 28.9 °F 78% 30.09 in 10.0 mi Calm Calm - N/A   Clear
4:55 AM 37.9 °F 33.5 °F 30.0 °F 73% 30.09 in 10.0 mi ENE 5.8 mph - N/A   Clear
5:55 AM 39.9 °F 36.7 °F 30.0 °F 68% 30.10 in 10.0 mi ENE 4.6 mph - N/A   Clear
6:55 AM 36.0 °F - 28.0 °F 73% 30.11 in 10.0 mi Calm Calm - N/A   Clear
7:55 AM 33.1 °F - 28.0 °F 82% 30.12 in 10.0 mi Calm Calm - N/A   Clear
8:55 AM 39.9 °F - 30.9 °F 70% 30.14 in 10.0 mi Calm Calm - N/A   Clear
9:55 AM 46.0 °F 43.9 °F 30.0 °F 54% 30.16 in 10.0 mi East 4.6 mph - N/A   Unknown
10:55 AM 48.9 °F - 30.0 °F 48% 30.16 in 10.0 mi East 6.9 mph - N/A   Clear
11:55 AM 51.1 °F - 30.0 °F 44% 30.14 in 10.0 mi East 4.6 mph - N/A   Clear
12:55 PM 55.0 °F - 34.0 °F 45% 30.15 in 10.0 mi Calm Calm - N/A   Clear
1:55 PM 55.9 °F - 34.0 °F 44% 30.14 in 10.0 mi ESE 4.6 mph - N/A   Clear
2:55 PM 55.0 °F - 35.1 °F 47% 30.15 in 10.0 mi North 5.8 mph - N/A   Clear
3:55 PM 51.1 °F - 39.0 °F 63% 30.16 in 10.0 mi NNE 4.6 mph - N/A   Clear
4:55 PM 45.0 °F - 36.0 °F 71% 30.17 in 10.0 mi Calm Calm - N/A   Clear
5:55 PM 39.0 °F 36.8 °F 33.1 °F 79% 30.18 in 10.0 mi WSW 3.5 mph - N/A   Clear
6:55 PM 39.9 °F 37.8 °F 34.0 °F 79% 30.19 in 10.0 mi ESE 3.5 mph - N/A   Clear
7:55 PM 37.0 °F 34.5 °F 33.1 °F 86% 30.19 in 10.0 mi SSE 3.5 mph - N/A   Clear
8:55 PM 35.1 °F - 32.0 °F 89% 30.21 in 10.0 mi Calm Calm - N/A   Clear
9:55 PM 33.1 °F 28.7 °F 30.9 °F 92% 30.21 in 10.0 mi ESE 4.6 mph - N/A   Clear
10:55 PM 34.0 °F 29.8 °F 30.9 °F 89% 30.21 in 8.0 mi ESE 4.6 mph - N/A   Clear
11:55 PM 33.1 °F - 28.9 °F 85% 30.22 in 10.0 mi Calm Calm - N/A   Clear